Tracking 29892 objects as of 21-Nov-2024
HD Live streaming from Space Station
objects crossing your sky now

STARLINK-3936

Track STARLINK-3936 now!
10-day predictions
STARLINK-3936 is classified as:


NORAD ID: 52674
Int'l Code: 2022-053U
Perigee: 545.8 km
Apogee: 547.9 km
Inclination: 53.2 °
Period: 95.4 minutes
Semi major axis: 6917 km
RCS: Unknown
Launch date: May 18, 2022
Source: United States (US)
Launch site: AIR FORCE EASTERN TEST RANGE (AFETR)
Your satellite tracking list
Your tracking list is empty




NASA's NSSDC Master Catalog

Two Line Element Set (TLE):
1 52674U 22053U   24325.83551026  .00001357  00000-0  10335-3 0  9993
2 52674  53.2161 121.3326 0001509  89.5458 270.5707 15.08845240139082
Source of the keplerian elements: AFSPC